Terug naar catalogus

COSMOS 468

ActiefMilitairLEO
NORAD 5705·PAYLOAD·🇷🇺 Russia

Gelanceerd Dec 17, 1971 vanaf Plesetsk Cosmodrome

Loading…

Volgende Passages (komende 24 uur)

TLE

VersSource: Space-Track

Epoch: Sep 13, 2026, 23:24 UTC

1 05705U 71114A   26256.97530408  .00000071  00000-0  33063-4 0  9995
2 05705  74.0159  78.3134 0014022 107.8941 252.3742 14.36757881863967

Volg COSMOS 468 in realtime met AllMySat

Download on the App Store